User: anonymous   Login
Location: Fort Frances
(48.6170°N, 93.4170°W)
Time: 12:25:37
(UTC-05:00)
Language:

CZ-2C R/B - Orbit

View from above orbital plane
View from above orbital plane
View from above satellite
View from above satellite

Ground track
Ground track

The orbit data is extracted from the following two-line orbital elements,

1 36089U 09061B   16121.55567015  .00000004  00000-0  12563-4 0  9992
2 36089  98.0534 135.7710 0081030 235.9745 282.6211 14.49569269341935
Epoch (UTC): 30 April 2016 13:20:09
Eccentricity: 0.0081030
inclination: 98.0534°
perigee height: 669 km
apogee height: 784 km
right ascension of ascending node: 135.7710°
argument of perigee: 235.9745°
revolutions per day: 14.49569269
mean anomaly at epoch: 282.6211°
orbit number at epoch: 34193

The dashed part of the orbit path shows where the satellite is in the earth's shadow,  

DLR